Wind_Speed
17 16 16 15 15 15 15 15 15 15 14 14 13 13 13 13 13 12 12 12 11 10 10 9 8 8 7 6 5 4 4 3 3 2 1 1 2 3 4 4 5 6 6
18 18 17 17 16 16 16 16 16 16 15 15 14 14 14 14 14 13 13 13 12 11 11 10 9 9 8 7 7 6 5 4 3 3 3 3 3 4 4 5 5 6 6
20 20 19 19 18 17 16 16 17 17 16 16 15 15 14 14 14 14 14 13 13 13 12 11 11 10 9 9 8 7 6 5 5 4 4 5 5 5 5 6 6 7 7
22 22 21 20 19 18 18 18 18 18 17 17 16 16 15 15 15 14 14 14 14 14 13 13 12 11 11 10 10 9 7 7 6 6 5 6 6 6 6 7 7 8 8
24 23 23 23 21 20 19 19 19 19 18 18 18 18 17 17 16 16 15 15 15 14 14 14 13 13 12 11 11 10 9 8 8 7 7 7 7 7 8 8 8 9 9
25 25 25 24 23 22 21 20 20 20 20 20 20 19 19 18 18 17 17 16 15 16 15 15 14 14 13 13 12 11 11 10 9 9 8 8 8 9 9 9 10 10 10
26 26 26 26 25 24 24 22 22 22 21 21 21 20 20 19 19 18 18 17 16 16 16 16 15 15 14 14 13 13 12 12 11 10 10 10 10 10 10 11 11 11 11
28 27 27 27 27 26 26 25 24 23 23 22 22 21 21 20 20 19 19 18 17 17 17 17 16 16 15 15 14 14 13 13 12 12 11 11 11 12 12 12 12 12 12
30 30 29 28 27 27 27 26 25 25 24 24 23 23 22 22 21 20 20 19 18 17 17 17 17 17 16 16 15 15 14 14 13 13 12 12 12 13 13 13 13 13 13
32 31 31 30 29 28 28 28 27 26 26 26 25 24 23 23 22 21 21 21 20 19 18 18 18 17 17 17 17 16 16 15 15 14 14 13 13 13 14 14 14 14 14
32 32 33 32 31 30 29 29 29 28 28 27 26 26 25 24 24 23 22 22 20 20 19 19 18 18 18 18 18 17 17 16 16 15 15 14 13 13 14 14 14 14 14
32 33 33 33 33 32 31 30 30 31 30 29 28 28 27 26 25 24 24 23 22 21 20 19 19 19 19 19 18 18 18 17 17 16 16 15 15 15 14 15 15 15 15
34 34 34 35 35 34 32 31 31 32 32 31 30 29 29 28 27 26 25 25 24 22 21 20 19 19 19 19 19 19 19 19 18 18 17 17 16 16 16 16 16 16 16
35 35 35 36 36 35 34 33 33 33 33 33 32 31 30 29 29 28 27 26 25 24 22 21 20 20 20 20 20 20 20 20 19 19 18 18 17 17 17 16 17 17 17
36 36 36 37 37 36 36 35 35 34 35 34 33 32 32 31 30 29 29 27 26 25 24 23 22 22 21 20 20 20 20 20 20 20 20 19 18 18 18 18 18 18 18
37 36 36 37 37 37 36 36 36 36 36 36 35 33 33 32 31 30 30 29 28 26 25 24 24 23 22 22 22 22 21 21 21 21 21 20 20 19 19 19 20 20 20
37 37 37 37 38 38 37 37 37 37 37 37 36 35 34 34 33 32 31 31 30 29 28 27 25 25 24 24 23 23 23 23 23 22 22 22 22 22 21 22 22 22 22
37 37 37 38 39 38 38 38 39 38 38 38 38 37 36 35 35 34 33 32 32 31 30 29 28 27 26 26 26 26 26 26 25 24 24 24 24 24 24 24 24 24 24
37 37 37 38 39 38 38 38 38 39 39 38 38 38 38 37 36 35 35 34 34 34 32 31 30 29 28 28 28 28 28 28 27 26 26 25 25 26 26 25 25 25 26
37 37 37 37 39 39 37 37 38 39 39 39 38 38 39 38 38 37 37 36 36 36 35 34 33 32 31 30 30 30 30 29 29 28 28 27 27 27 27 27 27 26 27
38 38 37 36 37 38 37 38 38 38 39 39 38 39 39 39 39 40 39 38 38 37 37 36 35 34 33 32 32 31 32 31 31 30 30 30 29 29 29 29 28 28 28
38 38 37 36 37 38 37 37 37 37 38 38 39 40 40 40 40 40 39 39 39 39 38 37 36 35 35 34 33 33 33 33 33 33 32 32 31 31 30 30 30 30 30
38 38 38 37 37 38 37 38 38 38 37 38 38 39 40 40 40 41 41 40 40 39 39 38 37 37 37 36 36 36 35 34 34 35 34 34 34 33 33 32 31 32 32
39 38 37 36 37 38 36 37 37 37 37 37 38 39 40 41 41 41 41 40 40 41 40 40 40 39 38 38 38 37 37 35 35 35 35 35 35 35 34 34 34 34 34
39 39 38 35 38 38 38 39 38 37 36 36 38 39 39 40 40 40 41 40 40 40 41 41 41 41 41 40 39 38 38 36 36 35 36 36 36 37 37 36 36 36 36
39 39 38 38 38 40 40 39 38 38 37 35 37 38 39 39 39 39 40 41 42 42 42 42 42 41 42 41 40 40 39 38 37 37 37 37 37 38 38 38 38 38 38
Wind_Direction
238 237 237 237 238 238 235 231 229 228 228 228 228 227 228 228 225 224 221 218 218 219 220 219 216 214 215 218 220 226 229 225 226 238 270 308 334 342 346 350 354 355 355
239 237 238 238 237 238 235 231 230 230 231 230 230 229 228 228 228 225 224 223 222 222 222 222 222 222 222 224 228 232 235 233 234 245 265 284 301 313 322 331 337 339 340
240 238 238 238 239 238 235 232 231 231 232 232 232 230 229 229 229 226 225 226 225 225 223 224 225 227 229 230 231 234 236 238 242 252 267 276 284 295 306 315 320 323 325
242 239 238 238 238 239 238 236 233 233 233 234 233 231 230 230 229 228 227 227 228 229 228 226 228 232 232 233 234 236 238 242 248 257 270 277 280 287 296 302 305 310 315
243 241 239 238 238 239 240 238 236 234 234 235 235 234 233 232 231 230 230 229 229 231 232 230 231 234 234 235 234 237 242 248 253 259 269 277 281 286 291 296 300 304 307
243 242 240 239 239 240 240 239 238 236 236 238 237 235 233 232 231 230 231 231 232 233 234 233 234 235 237 237 238 241 246 252 256 259 267 275 281 286 290 292 296 299 303
243 242 241 240 240 240 240 239 239 237 237 237 236 235 234 233 231 231 231 232 234 236 235 235 235 238 240 241 243 245 249 252 257 261 266 273 279 285 288 290 294 296 298
243 243 243 242 240 240 240 240 239 238 236 235 235 235 234 234 233 232 232 234 235 237 236 237 237 238 241 244 246 248 251 255 257 262 266 271 276 280 284 287 291 293 293
244 243 243 243 242 241 240 241 240 237 235 234 235 236 236 236 235 234 234 235 235 237 239 241 240 241 242 245 248 251 254 256 258 261 266 271 276 279 281 284 288 290 292
245 244 243 243 243 243 242 241 241 238 235 235 236 236 236 236 236 236 236 235 236 238 241 244 242 244 245 247 250 253 256 257 258 260 264 270 275 279 282 283 286 288 291
247 245 243 242 242 243 242 242 240 238 236 236 237 237 237 237 237 237 237 236 238 241 243 244 244 246 248 249 251 253 256 257 258 259 262 267 274 279 284 286 286 287 289
246 245 243 242 241 242 243 242 240 237 236 236 237 238 238 238 238 239 238 239 240 242 244 245 247 249 250 252 254 254 256 257 257 258 261 266 271 277 282 285 285 286 289
246 245 243 242 241 242 242 242 241 237 236 236 237 238 239 238 238 239 239 240 241 243 244 245 248 251 253 253 255 255 257 257 258 259 262 265 269 274 279 283 284 284 286
245 245 244 243 242 242 242 241 240 238 236 236 237 238 238 238 238 241 241 241 241 242 244 245 247 252 254 254 255 257 258 258 258 258 261 265 268 272 276 281 283 283 284
246 245 244 243 242 242 242 241 239 239 237 236 237 238 238 237 237 240 241 240 240 242 245 246 248 251 254 256 257 259 260 260 259 259 262 265 268 271 274 279 281 282 283
247 245 245 243 242 242 242 241 239 238 237 236 237 238 238 237 237 238 239 239 240 243 245 247 248 252 255 257 259 261 262 263 261 260 262 265 268 270 273 277 280 281 282
248 246 246 244 241 242 241 240 239 237 236 237 237 238 238 237 237 238 239 240 241 243 245 247 249 253 255 257 259 262 262 264 263 262 263 264 266 269 272 275 278 280 281
247 246 245 244 242 241 241 239 238 237 236 236 236 237 238 237 238 239 240 240 241 243 245 247 248 252 255 258 260 263 264 263 263 262 264 265 266 268 271 274 277 279 280
248 245 245 244 243 241 240 238 238 237 236 236 236 237 237 237 238 239 240 240 242 244 245 247 249 252 255 258 261 263 264 263 262 262 263 264 266 269 271 272 275 278 278
248 246 245 244 241 240 238 236 236 235 235 236 237 237 236 236 238 239 241 241 242 244 245 247 251 253 255 258 260 261 263 264 263 263 263 265 267 268 270 271 274 277 278
246 245 244 244 241 238 238 236 235 234 234 235 236 237 236 237 237 239 240 241 242 243 245 249 252 254 255 257 260 261 262 264 263 262 264 265 267 268 269 271 273 275 278
246 243 242 243 241 238 237 235 234 234 234 234 236 237 236 237 236 237 240 241 241 243 246 250 252 254 255 257 260 261 263 264 264 264 264 264 266 268 269 271 273 274 277
245 242 241 242 240 236 236 235 235 235 234 234 235 237 238 238 237 238 239 242 241 243 245 248 251 255 256 257 259 261 262 264 264 265 266 264 265 267 269 270 273 275 276
244 241 241 240 238 236 235 234 234 234 234 235 236 237 238 240 240 240 240 242 243 244 246 248 251 254 256 257 259 260 261 264 265 265 265 264 265 266 269 271 273 275 276
243 241 241 239 237 235 234 234 234 234 234 237 236 237 239 241 241 242 243 244 246 247 248 251 251 254 257 258 258 260 261 264 266 267 265 265 266 267 269 270 273 274 276
242 241 241 239 237 235 235 235 235 235 234 238 238 239 241 242 241 242 243 245 247 248 251 254 255 255 257 259 258 259 262 265 266 268 267 266 267 268 271 273 273 274 275
Height
5844 5845 5846 5847 5848 5849 5850 5851 5853 5854 5855 5856 5857 5859 5860 5861 5862 5863 5864 5865 5866 5867 5869 5870 5871 5871 5872 5873 5874 5875 5875 5876 5876 5877 5877 5877 5877 5877 5878 5878 5877 5877 5877
5840 5842 5843 5844 5845 5846 5848 5849 5850 5852 5853 5854 5855 5857 5858 5859 5860 5862 5863 5864 5865 5866 5867 5868 5869 5870 5871 5872 5873 5874 5874 5875 5875 5876 5876 5876 5877 5877 5877 5877 5877 5877 5876
5837 5838 5840 5841 5842 5843 5845 5846 5847 5849 5850 5852 5853 5854 5856 5857 5858 5860 5861 5862 5863 5865 5866 5867 5868 5869 5870 5871 5872 5873 5873 5874 5874 5875 5875 5875 5876 5876 5876 5876 5876 5876 5876
5833 5835 5836 5837 5839 5841 5842 5843 5844 5846 5847 5849 5850 5852 5853 5855 5856 5858 5859 5860 5862 5863 5864 5865 5866 5867 5868 5869 5870 5871 5872 5873 5873 5874 5874 5874 5874 5874 5874 5875 5875 5875 5874
5828 5830 5832 5834 5835 5837 5839 5840 5841 5842 5844 5846 5847 5849 5850 5852 5853 5855 5857 5858 5859 5861 5862 5863 5864 5865 5866 5867 5868 5869 5870 5871 5872 5872 5873 5873 5873 5873 5873 5873 5873 5873 5873
5824 5825 5827 5829 5831 5833 5835 5836 5838 5839 5841 5842 5843 5845 5846 5848 5850 5852 5854 5855 5857 5858 5859 5861 5862 5863 5864 5865 5866 5867 5868 5869 5870 5870 5871 5871 5871 5871 5871 5871 5871 5871 5871
5818 5820 5823 5825 5827 5829 5830 5832 5834 5835 5837 5838 5839 5841 5842 5844 5846 5848 5850 5852 5854 5855 5857 5858 5860 5861 5862 5863 5864 5865 5866 5867 5867 5868 5869 5869 5869 5869 5869 5869 5869 5869 5869
5813 5815 5817 5819 5822 5824 5826 5827 5829 5831 5832 5834 5835 5837 5839 5840 5842 5844 5847 5849 5850 5852 5854 5855 5857 5858 5859 5861 5862 5863 5863 5864 5865 5866 5866 5866 5867 5867 5867 5867 5867 5866 5866
5807 5809 5812 5814 5816 5819 5821 5822 5824 5826 5828 5829 5831 5833 5835 5837 5839 5841 5843 5845 5847 5849 5851 5852 5854 5855 5857 5858 5859 5860 5861 5861 5862 5863 5863 5864 5864 5864 5864 5864 5864 5864 5864
5801 5804 5806 5808 5811 5813 5815 5817 5819 5821 5823 5825 5827 5829 5831 5833 5835 5837 5839 5841 5843 5845 5847 5849 5851 5852 5853 5855 5856 5857 5858 5858 5859 5860 5860 5861 5861 5861 5861 5861 5861 5861 5861
5795 5797 5800 5802 5805 5807 5809 5811 5813 5815 5818 5820 5823 5825 5827 5829 5831 5833 5835 5837 5840 5842 5844 5846 5847 5849 5850 5851 5852 5853 5854 5855 5856 5857 5857 5857 5858 5858 5858 5858 5858 5858 5858
5788 5790 5793 5796 5798 5801 5802 5805 5807 5810 5813 5815 5818 5820 5823 5825 5827 5829 5831 5833 5836 5838 5840 5842 5844 5845 5846 5848 5849 5850 5851 5852 5852 5853 5854 5854 5855 5855 5855 5855 5855 5855 5855
5780 5783 5786 5788 5791 5794 5796 5799 5801 5804 5807 5810 5812 5815 5817 5820 5822 5824 5827 5829 5832 5834 5836 5838 5840 5841 5843 5844 5845 5846 5847 5848 5849 5849 5850 5851 5851 5852 5852 5852 5852 5852 5852
5772 5775 5778 5781 5783 5786 5788 5792 5795 5798 5801 5804 5807 5809 5812 5814 5817 5820 5822 5825 5827 5830 5832 5834 5836 5837 5838 5840 5841 5842 5843 5844 5845 5846 5847 5847 5848 5848 5848 5848 5848 5848 5848
5764 5767 5770 5772 5775 5778 5781 5784 5787 5791 5794 5797 5800 5803 5806 5809 5812 5814 5817 5820 5823 5825 5827 5830 5831 5833 5834 5835 5837 5838 5839 5840 5841 5842 5843 5843 5844 5844 5844 5845 5845 5845 5845
5756 5758 5761 5764 5767 5770 5773 5776 5780 5783 5787 5791 5794 5797 5800 5803 5806 5809 5812 5814 5817 5820 5822 5825 5827 5828 5830 5831 5832 5833 5834 5835 5836 5837 5838 5839 5840 5840 5840 5840 5841 5840 5840
5748 5750 5753 5755 5758 5761 5764 5768 5772 5775 5779 5783 5787 5790 5793 5797 5800 5803 5806 5809 5812 5815 5817 5819 5821 5823 5825 5826 5827 5828 5829 5830 5831 5832 5833 5834 5835 5835 5835 5836 5836 5836 5836
5739 5742 5744 5746 5749 5751 5755 5759 5763 5767 5772 5776 5779 5783 5787 5790 5794 5797 5800 5803 5806 5808 5811 5814 5816 5818 5819 5821 5822 5822 5823 5824 5826 5827 5828 5829 5829 5830 5830 5831 5831 5831 5830
5730 5733 5735 5737 5740 5742 5745 5750 5754 5759 5764 5768 5772 5776 5779 5783 5786 5790 5793 5796 5799 5802 5805 5807 5809 5811 5813 5815 5815 5816 5817 5818 5819 5820 5822 5822 5824 5824 5824 5825 5825 5825 5825
5721 5724 5726 5728 5731 5734 5737 5742 5746 5751 5755 5760 5764 5768 5771 5775 5779 5782 5786 5789 5792 5795 5798 5801 5803 5805 5806 5808 5809 5810 5810 5811 5812 5814 5815 5816 5817 5818 5818 5819 5819 5819 5819
5711 5715 5717 5719 5722 5725 5729 5734 5739 5743 5747 5752 5756 5760 5763 5767 5771 5775 5778 5782 5785 5788 5791 5794 5796 5797 5799 5800 5802 5803 5804 5805 5806 5807 5808 5810 5811 5811 5812 5812 5812 5813 5812
5702 5706 5709 5711 5714 5717 5721 5727 5731 5735 5739 5744 5748 5751 5755 5759 5762 5766 5770 5774 5777 5780 5783 5786 5788 5790 5791 5793 5794 5795 5796 5798 5799 5800 5801 5803 5804 5804 5805 5805 5805 5806 5805
5694 5697 5700 5703 5706 5709 5714 5719 5723 5728 5732 5736 5740 5744 5747 5751 5754 5758 5762 5766 5769 5773 5775 5778 5780 5782 5784 5785 5787 5788 5789 5790 5791 5793 5794 5795 5796 5797 5797 5797 5798 5798 5798
5686 5689 5693 5695 5699 5703 5707 5712 5716 5720 5725 5729 5733 5737 5740 5743 5747 5750 5754 5758 5761 5764 5767 5769 5772 5773 5775 5777 5778 5779 5781 5782 5784 5785 5786 5787 5788 5789 5789 5789 5790 5790 5790
5677 5681 5684 5688 5692 5696 5700 5705 5709 5714 5718 5722 5726 5729 5732 5735 5739 5742 5746 5750 5753 5756 5758 5760 5763 5765 5767 5768 5770 5771 5773 5774 5775 5776 5778 5779 5779 5780 5780 5781 5781 5781 5781
5669 5673 5677 5681 5685 5689 5693 5698 5702 5707 5711 5714 5718 5722 5724 5728 5731 5734 5738 5741 5745 5747 5750 5752 5754 5756 5757 5759 5761 5762 5764 5765 5767 5768 5769 5770 5770 5771 5771 5772 5772 5772 5772